This demonstration page uses our WeatherBlox Daily Observations layout. Learn more.

Left ArrowRight Arrow

Hourly Observations for July 3, 2021

Temp ( °F °C ) Dew Point ( °F °C ) Humidity (%) Winds ( mph kmh ) Pressure ( in mb ) Visibility ( mi km ) Precip ( " mm )
12:15 am 00:15 Clear 67 19.5 62 16.6 83 83 ESE 7 11 30.04 1017 10 16 0.00 0.00
12:35 am 00:35 Clear 67 19.3 62 16.5 84 84 SE 7 11 30.04 1017 10 16 0.00 0.00
12:55 am 00:55 Clear 66 19 62 16.5 86 86 SE 5 7 30.05 1017 10 16 0.00 0.00
1:15 am 01:15 Clear 66 18.8 61 16.3 85 85 SE 5 7 30.05 1017 10 16 0.00 0.00
1:35 am 01:35 Clear 65 18.5 61 16.3 87 87 SE 6 9 30.05 1018 10 16 0.00 0.00
1:55 am 01:55 Clear 65 18.5 62 16.5 88 88 SSE 6 9 30.04 1017 10 16 0.00 0.00
2:15 am 02:15 Clear 65 18.5 62 16.5 88 88 Calm 30.04 1017 10 16 0.00 0.00
2:35 am 02:35 Clear 65 18.5 62 16.5 88 88 SSE 3 6 30.04 1017 10 16 0.00 0.00
2:55 am 02:55 Clear 65 18.5 62 16.5 88 88 SSE 3 6 30.04 1017 10 16 0.00 0.00
3:15 am 03:15 Clear 65 18.3 62 16.5 89 89 SSE 6 9 30.03 1017 10 16 0.00 0.00
3:35 am 03:35 Clear 65 18.1 62 16.4 90 90 SSE 7 11 30.03 1017 10 16 0.00 0.00
3:55 am 03:55 Clear 65 18.1 62 16.5 90 90 SSE 6 9 30.03 1017 10 16 0.00 0.00
4:15 am 04:15 Partly Cloudy 65 18.5 62 16.8 90 90 SSE 6 9 30.03 1017 10 16 0.00 0.00
4:35 am 04:35 Partly Cloudy 66 18.8 63 17 89 89 SSE 7 11 30.03 1017 10 16 0.00 0.00
4:55 am 04:55 Clear 66 18.8 63 17.1 90 90 S 6 9 30.02 1016 10 16 0.00 0.00
5:15 am 05:15 Partly Cloudy 66 18.7 63 17.2 91 91 S 6 9 30.02 1017 10 16 0.00 0.00
5:35 am 05:35 Mostly Cloudy 66 18.7 63 17.1 90 90 S 5 7 30.02 1017 10 16 0.00 0.00
5:55 am 05:55 Partly Cloudy 65 18.5 63 17 91 91 S 5 7 30.02 1017 10 16 0.00 0.00
6:15 am 06:15 Partly Cloudy 65 18.1 62 16.9 93 93 SSE 6 9 30.02 1017 10 16 0.00 0.00
6:35 am 06:35 Sunny 64 18 62 16.8 93 93 S 5 7 30.02 1017 10 16 0.00 0.00
6:55 am 06:55 Sunny 65 18.5 63 17.1 92 92 S 5 7 30.02 1017 10 16 0.00 0.00
7:15 am 07:15 Sunny 66 18.7 63 17.2 91 91 S 5 7 30.02 1017 10 16 0.00 0.00
7:35 am 07:35 Partly Cloudy 67 19.3 64 17.5 89 89 S 5 7 30.02 1017 10 16 0.00 0.00
7:55 am 07:55 Partly Cloudy 68 20.1 64 17.7 86 86 S 6 9 30.02 1016 10 16 0.00 0.00
8:15 am 08:15 Sunny 69 20.7 64 18 85 85 S 6 9 30.01 1016 10 16 0.00 0.00
8:35 am 08:35 Sunny 71 21.5 65 18.2 82 82 SSW 8 13 30.00 1016 10 16 0.00 0.00
8:55 am 08:55 Sunny 72 22.3 65 18.4 79 79 S 8 13 30.00 1016 10 16 0.00 0.00
9:15 am 09:15 Sunny 73 23 66 18.8 77 77 S 8 13 29.98 1015 10 16 0.00 0.00
9:35 am 09:35 Sunny 75 23.7 66 18.9 75 75 S 8 13 29.98 1015 10 16 0.00 0.00
9:55 am 09:55 Sunny 77 24.8 67 19.2 71 71 SSW 10 17 29.97 1015 10 16 0.00 0.00
10:15 am 10:15 Sunny 78 25.5 66 19 67 67 S 12 19 29.96 1015 10 16 0.00 0.00
10:35 am 10:35 Sunny 79 26.1 67 19.3 66 66 S 9 15 29.96 1014 10 16 0.00 0.00
10:55 am 10:55 Partly Cloudy 80 26.8 67 19.5 64 64 S 10 17 29.95 1014 10 16 0.00 0.00
11:15 am 11:15 Cloudy 79 26.3 65 18.6 63 63 SSW 12 19 29.96 1014 10 16 0.00 0.00
11:35 am 11:35 Cloudy 79 26.3 66 18.9 64 64 SSW 12 19 29.95 1014 10 16 0.00 0.00
11:55 am 11:55 Mostly Cloudy 80 26.6 66 18.7 62 62 S 13 20 29.94 1014 10 16 0.00 0.00
12:15 pm 12:15 Partly Cloudy 81 27.4 64 17.9 56 56 S 14 22 29.93 1013 10 16 0.00 0.00
12:35 pm 12:35 Partly Cloudy 82 28 64 18 55 55 S 14 22 29.92 1013 10 16 0.00 0.00
12:55 pm 12:55 Partly Cloudy 84 28.7 64 17.7 51 51 S 16 26 29.92 1013 10 16 0.00 0.00
1:15 pm 13:15 Partly Cloudy 84 28.7 63 17.1 49 49 S 13 20 29.91 1013 10 16 0.00 0.00
1:35 pm 13:35 Mostly Cloudy 83 28.4 63 17.4 51 51 S 12 19 29.90 1013 10 16 0.00 0.00
1:55 pm 13:55 Partly Cloudy 84 29.1 64 17.6 50 50 S 14 22 29.89 1012 10 16 0.00 0.00
2:15 pm 14:15 Mostly Cloudy 84 28.8 64 17.9 52 52 S 14 22 29.90 1012 10 16 0.00 0.00
2:35 pm 14:35 Mostly Cloudy 84 28.9 64 17.7 51 51 S 13 20 29.89 1012 10 16 0.00 0.00
2:55 pm 14:55 Mostly Cloudy 85 29.5 63 17.3 48 48 SSW 14 22 29.88 1012 10 16 0.00 0.00
3:15 pm 15:15 Partly Cloudy 85 29.2 64 17.6 50 50 S 15 24 29.87 1012 10 16 0.00 0.00
3:35 pm 15:35 Partly Cloudy 86 29.8 62 16.9 46 46 S 13 20 29.86 1011 10 16 0.00 0.00
3:55 pm 15:55 Partly Cloudy 85 29.3 62 16.8 47 47 S 14 22 29.86 1011 10 16 0.00 0.00
4:15 pm 16:15 Partly Cloudy 86 29.9 64 17.5 47 47 S 15 24 29.85 1011 10 16 0.00 0.00
4:35 pm 16:35 Mostly Cloudy 86 30.2 64 17.6 47 47 S 12 19 29.84 1010 10 16 0.00 0.00
4:55 pm 16:55 Partly Cloudy 85 29.6 64 17.6 48 48 S 13 20 29.84 1011 10 16 0.00 0.00
5:15 pm 17:15 Partly Cloudy 86 30.1 64 17.8 48 48 S 13 20 29.84 1010 10 16 0.00 0.00
5:35 pm 17:35 Partly Cloudy 85 29.7 63 17.3 47 47 SSE 12 19 29.83 1010 10 16 0.00 0.00
5:55 pm 17:55 Sunny 85 29.7 64 17.5 48 48 SSE 10 17 29.82 1010 10 16 0.00 0.00
6:15 pm 18:15 Sunny 85 29.7 63 17.4 48 48 S 13 20 29.81 1009 10 16 0.00 0.00
6:35 pm 18:35 Sunny 85 29.5 64 17.6 49 49 S 10 17 29.81 1010 10 16 0.00 0.00
6:55 pm 18:55 Sunny 84 29.1 63 17 48 48 S 12 19 29.81 1010 10 16 0.00 0.00
7:15 pm 19:15 Sunny 84 28.7 62 16.8 49 49 SSE 14 22 29.81 1009 10 16 0.00 0.00
7:35 pm 19:35 Sunny 83 28.4 63 17.4 51 51 SSE 9 15 29.81 1009 10 16 0.00 0.00
7:55 pm 19:55 Sunny 82 27.5 62 16.8 52 52 SSE 9 15 29.82 1010 10 16 0.00 0.00
8:15 pm 20:15 Sunny 80 26.5 63 17 56 56 S 8 13 29.83 1010 10 16 0.00 0.00
8:35 pm 20:35 Sunny 78 25.5 63 17 59 59 SSE 7 11 29.84 1011 10 16 0.00 0.00
8:55 pm 20:55 Sunny 76 24.5 63 17.4 65 65 SSE 7 11 29.85 1011 10 16 0.00 0.00
9:15 pm 21:15 Clear 75 24 61 16.2 62 62 SSE 7 11 29.85 1011 10 16 0.00 0.00
9:35 pm 21:35 Clear 74 23.5 61 16 63 63 SSE 6 9 29.87 1011 10 16 0.00 0.00
9:55 pm 21:55 Clear 74 23.5 60 15.3 60 60 SSE 9 15 29.88 1012 10 16 0.00 0.00
10:15 pm 22:15 Clear 74 23.2 59 15 60 60 S 7 11 29.89 1012 10 16 0.00 0.00
10:35 pm 22:35 Clear 73 22.6 59 15 62 62 SSE 6 9 29.90 1012 10 16 0.00 0.00
10:55 pm 22:55 Clear 71 21.8 59 15.2 66 66 SSE 6 9 29.89 1012 10 16 0.00 0.00
11:15 pm 23:15 Clear 70 21.3 60 15.3 69 69 SSE 7 11 29.90 1012 10 16 0.00 0.00
11:35 pm 23:35 Clear 71 21.5 59 15 67 67 SSE 7 11 29.89 1012 10 16 0.00 0.00
11:55 pm 23:55 Clear 71 21.8 58 14.5 63 63 S 8 13 29.88 1012 10 16 0.00 0.00

Powered by AerisWeather